| time (UTC) | temp C | wind direction | speed KPH | gust KPH | rain 1hr cm | rain 24hr cm | rain mn cm | humidity % | barometer mb |
| 20260502195109 | 12 | 133 | 0.0 | 0.0 | 0.00 | 0.00 | 0.00 | 47 | 1011.9 |
| 20260502194606 | 12 | 96 | 1.6 | 3.2 | 0.00 | 0.00 | 0.00 | 47 | 1011.8 |
| 20260502194102 | 12 | 232 | 4.8 | 9.7 | 0.00 | 0.00 | 0.00 | 47 | 1011.6 |
| 20260502193600 | 12 | 150 | 4.8 | 8.0 | 0.00 | 0.00 | 0.00 | 45 | 1012.0 |
| 20260502193056 | 12 | 342 | 6.4 | 9.7 | 0.00 | 0.00 | 0.00 | 46 | 1011.9 |
| 20260502192552 | 13 | 148 | 1.6 | 1.6 | 0.00 | 0.00 | 0.00 | 46 | 1011.6 |
| 20260502192050 | 12 | 99 | 1.6 | 3.2 | 0.00 | 0.00 | 0.00 | 50 | 1011.9 |
| 20260502191546 | 11 | 337 | 8.0 | 9.7 | 0.00 | 0.00 | 0.00 | 48 | 1012.0 |
| 20260502191044 | 11 | 55 | 4.8 | 4.8 | 0.00 | 0.00 | 0.00 | 47 | 1011.9 |
| 20260502190541 | 11 | 342 | 9.7 | 12.9 | 0.00 | 0.00 | 0.00 | 46 | 1012.1 |
| 20260502190038 | 12 | 190 | 4.8 | 4.8 | 0.00 | 0.00 | 0.00 | 47 | 1012.2 |
| 20260502185533 | 13 | 301 | 9.7 | 11.3 | 0.00 | 0.00 | 0.00 | 45 | 1012.1 |
| 20260502185030 | 13 | 275 | 9.7 | 11.3 | 0.00 | 0.00 | 0.00 | 43 | 1012.1 |
| 20260502184526 | 12 | 89 | 4.8 | 8.0 | 0.00 | 0.00 | 0.00 | 47 | 1012.0 |
| 20260502184022 | 12 | 148 | 4.8 | 4.8 | 0.00 | 0.00 | 0.00 | 45 | 1012.2 |
| 20260502183518 | 12 | 34 | 4.8 | 8.0 | 0.00 | 0.00 | 0.00 | 46 | 1012.2 |
| 20260502183015 | 12 | 358 | 6.4 | 9.7 | 0.00 | 0.00 | 0.00 | 47 | 1012.3 |
| 20260502182509 | 12 | 131 | 0.0 | 1.6 | 0.00 | 0.00 | 0.00 | 47 | 1012.5 |
| 20260502182006 | 12 | 239 | 6.4 | 9.7 | 0.00 | 0.00 | 0.00 | 46 | 1012.1 |
| 20260502181504 | 12 | 48 | 4.8 | 8.0 | 0.00 | 0.00 | 0.00 | 48 | 1012.3 |
| 20260502181002 | 11 | 18 | 6.4 | 9.7 | 0.00 | 0.00 | 0.00 | 48 | 1012.3 |
| 20260502180458 | 12 | 273 | 6.4 | 8.0 | 0.00 | 0.00 | 0.00 | 47 | 1012.2 |
| 20260502170413 | 12 | 117 | 8.0 | 9.7 | 0.00 | 0.00 | 0.00 | 47 | 1012.6 |
| 20260502163855 | 12 | 192 | 6.4 | 9.7 | 0.00 | 0.00 | 0.00 | 47 | 1013.0 |
| 20260502163352 | 12 | 121 | 4.8 | 4.8 | 0.00 | 0.00 | 0.00 | 50 | 1012.9 |
| 20260502162849 | 12 | 114 | 3.2 | 3.2 | 0.00 | 0.00 | 0.00 | 48 | 1013.0 |
| 20260502162346 | 13 | 273 | 9.7 | 14.5 | 0.00 | 0.00 | 0.00 | 47 | 1012.8 |
| 20260502161843 | 12 | 2 | 1.6 | 8.0 | 0.00 | 0.00 | 0.00 | 51 | 1013.0 |
| 20260502161339 | 12 | 183 | 4.8 | 4.8 | 0.00 | 0.00 | 0.00 | 49 | 1012.9 |
| 20260502160837 | 13 | 108 | 3.2 | 3.2 | 0.00 | 0.00 | 0.00 | 47 | 1013.3 |
| 20260502160336 | 13 | 325 | 6.4 | 8.0 | 0.00 | 0.00 | 0.00 | 49 | 1013.1 |
| 20260502152311 | 12 | 104 | 1.6 | 4.8 | 0.00 | 0.00 | 0.00 | 51 | 1013.3 |
| 20260502151808 | 12 | 24 | 3.2 | 4.8 | 0.00 | 0.00 | 0.00 | 51 | 1013.4 |
| 20260502151305 | 12 | 32 | 8.0 | 11.3 | 0.00 | 0.00 | 0.00 | 54 | 1013.3 |
| 20260502150803 | 12 | 119 | 1.6 | 1.6 | 0.00 | 0.00 | 0.00 | 53 | 1013.4 |
| 20260502150259 | 12 | 130 | 0.0 | 0.0 | 0.00 | 0.00 | 0.00 | 54 | 1013.4 |
| 20260502130647 | 6 | 121 | 0.0 | 0.0 | 0.00 | 0.00 | 0.00 | 97 | 1013.5 |
| 20260502130145 | 6 | 124 | 0.0 | 0.0 | 0.00 | 0.00 | 0.00 | 99 | 1013.5 |
| 20260502123631 | 3 | 121 | 0.0 | 0.0 | 0.00 | 0.00 | 0.00 | 99 | 1013.3 |
| 20260502123127 | 3 | 119 | 0.0 | 0.0 | 0.00 | 0.00 | 0.00 | 99 | 1013.3 |
| 20260502122624 | 3 | 122 | 0.0 | 0.0 | 0.00 | 0.00 | 0.00 | 99 | 1013.0 |
| 20260502122121 | 3 | 118 | 0.0 | 0.0 | 0.00 | 0.00 | 0.00 | 99 | 1013.4 |
| 20260502121619 | 3 | 127 | 0.0 | 0.0 | 0.00 | 0.00 | 0.00 | 99 | 1013.3 |
| 20260502121116 | 3 | 124 | 0.0 | 0.0 | 0.00 | 0.00 | 0.00 | 99 | 1013.4 |
| 20260502120612 | 2 | 114 | 0.0 | 0.0 | 0.00 | 0.00 | 0.00 | 99 | 1013.5 |
| 20260502120109 | 2 | 122 | 1.6 | 1.6 | 0.00 | 0.00 | 0.00 | 99 | 1013.4 |
| 20260502115607 | 2 | 120 | 0.0 | 0.0 | 0.00 | 0.00 | 0.00 | 99 | 1013.1 |
| 20260502115102 | 2 | 126 | 0.0 | 0.0 | 0.00 | 0.00 | 0.00 | 99 | 1013.1 |
| 20260502114559 | 1 | 127 | 0.0 | 0.0 | 0.00 | 0.00 | 0.00 | 99 | 1013.3 |
| 20260502114056 | 1 | 126 | 0.0 | 0.0 | 0.00 | 0.00 | 0.00 | 99 | 1013.3 |
| 20260502113554 | 1 | 133 | 0.0 | 0.0 | 0.00 | 0.00 | 0.00 | 99 | 1013.1 |
| 20260502113052 | 1 | 133 | 0.0 | 0.0 | 0.00 | 0.00 | 0.00 | 99 | 1013.1 |
| 20260502112549 | 1 | 133 | 0.0 | 0.0 | 0.00 | 0.00 | 0.00 | 99 | 1013.3 |
| 20260502112047 | 1 | 133 | 0.0 | 0.0 | 0.00 | 0.00 | 0.00 | 99 | 1013.1 |
| 20260502111544 | 1 | 134 | 0.0 | 0.0 | 0.00 | 0.00 | 0.00 | 99 | 1013.0 |
| 20260502111041 | 1 | 132 | 0.0 | 0.0 | 0.00 | 0.00 | 0.00 | 99 | 1013.1 |
| 20260502110539 | 1 | 132 | 0.0 | 0.0 | 0.00 | 0.00 | 0.00 | 99 | 1012.9 |
| 20260502110036 | 0 | 132 | 0.0 | 0.0 | 0.00 | 0.00 | 0.00 | 99 | 1012.9 |
| 20260502105533 | 0 | 132 | 0.0 | 0.0 | 0.00 | 0.00 | 0.00 | 99 | 1012.9 |
| 20260502105031 | 0 | 132 | 0.0 | 0.0 | 0.00 | 0.00 | 0.00 | 99 | 1012.8 |
| 20260502104528 | 0 | 132 | 0.0 | 0.0 | 0.00 | 0.00 | 0.00 | 99 | 1012.9 |
| 20260502104025 | 0 | 132 | 0.0 | 0.0 | 0.00 | 0.00 | 0.00 | 99 | 1013.0 |
| 20260502103523 | 0 | 132 | 0.0 | 0.0 | 0.00 | 0.00 | 0.00 | 99 | 1012.7 |
| 20260502103021 | 0 | 132 | 0.0 | 0.0 | 0.00 | 0.00 | 0.00 | 99 | 1012.7 |
| 20260502102517 | 0 | 132 | 0.0 | 0.0 | 0.00 | 0.00 | 0.00 | 99 | 1012.6 |
| 20260502102014 | 0 | 132 | 0.0 | 0.0 | 0.00 | 0.00 | 0.00 | 99 | 1013.0 |
| 20260502101512 | 0 | 132 | 0.0 | 0.0 | 0.00 | 0.00 | 0.00 | 99 | 1013.2 |
| 20260502101010 | 0 | 132 | 0.0 | 0.0 | 0.00 | 0.00 | 0.00 | 99 | 1012.9 |
| 20260502100508 | 0 | 132 | 0.0 | 0.0 | 0.00 | 0.00 | 0.00 | 99 | 1013.2 |
| 20260502091443 | 1 | 132 | 0.0 | 0.0 | 0.00 | 0.00 | 0.00 | 99 | 1012.9 |
| 20260502090940 | 1 | 131 | 0.0 | 0.0 | 0.00 | 0.00 | 0.00 | 99 | 1012.9 |
| 20260502090437 | 1 | 135 | 0.0 | 0.0 | 0.00 | 0.00 | 0.00 | 99 | 1013.2 |
| 20260502071331 | 1 | 131 | 0.0 | 0.0 | 0.00 | 0.00 | 0.00 | 98 | 1012.8 |
| 20260502070830 | 1 | 132 | 0.0 | 0.0 | 0.00 | 0.00 | 0.00 | 97 | 1012.8 |
| 20260502070327 | 1 | 132 | 0.0 | 0.0 | 0.00 | 0.00 | 0.00 | 97 | 1012.9 |
| 20260502065826 | 1 | 132 | 0.0 | 0.0 | 0.00 | 0.00 | 0.00 | 98 | 1012.8 |
| 20260502065323 | 1 | 132 | 0.0 | 0.0 | 0.00 | 0.00 | 0.00 | 97 | 1013.0 |
| 20260502064821 | 1 | 132 | 0.0 | 0.0 | 0.00 | 0.00 | 0.00 | 97 | 1013.0 |
| 20260502064319 | 1 | 132 | 0.0 | 0.0 | 0.00 | 0.00 | 0.00 | 97 | 1013.0 |
| 20260502063816 | 1 | 132 | 0.0 | 0.0 | 0.00 | 0.00 | 0.00 | 97 | 1012.9 |
| 20260502063314 | 1 | 132 | 0.0 | 0.0 | 0.00 | 0.00 | 0.00 | 97 | 1012.9 |
| 20260502062811 | 1 | 132 | 0.0 | 0.0 | 0.00 | 0.00 | 0.00 | 97 | 1012.8 |
| 20260502062308 | 2 | 132 | 0.0 | 0.0 | 0.00 | 0.00 | 0.00 | 98 | 1013.0 |
| 20260502061807 | 2 | 133 | 0.0 | 0.0 | 0.00 | 0.00 | 0.00 | 98 | 1013.0 |
| 20260502061304 | 2 | 130 | 0.0 | 0.0 | 0.00 | 0.00 | 0.00 | 98 | 1013.1 |
| 20260502060759 | 2 | 128 | 0.0 | 0.0 | 0.00 | 0.00 | 0.00 | 98 | 1013.3 |
| 20260502060255 | 2 | 128 | 0.0 | 0.0 | 0.00 | 0.00 | 0.00 | 98 | 1013.3 |
| 20260502055753 | 2 | 133 | 0.0 | 0.0 | 0.00 | 0.00 | 0.00 | 98 | 1013.4 |
| 20260502055250 | 2 | 132 | 0.0 | 0.0 | 0.00 | 0.00 | 0.00 | 97 | 1013.1 |
| 20260502054750 | 2 | 133 | 0.0 | 0.0 | 0.00 | 0.00 | 0.00 | 97 | 1013.3 |
| 20260502054247 | 2 | 133 | 0.0 | 0.0 | 0.00 | 0.00 | 0.00 | 97 | 1013.1 |
| 20260502053744 | 2 | 133 | 0.0 | 0.0 | 0.00 | 0.00 | 0.00 | 98 | 1013.2 |
| 20260502053241 | 2 | 133 | 0.0 | 0.0 | 0.00 | 0.00 | 0.00 | 98 | 1013.4 |
| 20260502052739 | 2 | 133 | 0.0 | 0.0 | 0.00 | 0.00 | 0.00 | 98 | 1013.3 |
| 20260502052237 | 2 | 132 | 0.0 | 0.0 | 0.00 | 0.00 | 0.00 | 98 | 1013.3 |
| 20260502051735 | 2 | 133 | 0.0 | 0.0 | 0.00 | 0.00 | 0.00 | 98 | 1013.6 |
| 20260502051233 | 2 | 129 | 0.0 | 0.0 | 0.00 | 0.00 | 0.00 | 98 | 1013.6 |
| 20260502050729 | 2 | 137 | 0.0 | 0.0 | 0.00 | 0.00 | 0.00 | 97 | 1013.4 |
| 20260502050225 | 3 | 132 | 0.0 | 0.0 | 0.00 | 0.00 | 0.00 | 97 | 1013.4 |
| 20260502045723 | 3 | 133 | 0.0 | 0.0 | 0.00 | 0.00 | 0.00 | 96 | 1013.3 |
| 20260502045219 | 3 | 133 | 0.0 | 0.0 | 0.00 | 0.00 | 0.00 | 96 | 1013.5 |
| 20260502044716 | 3 | 133 | 0.0 | 0.0 | 0.00 | 0.00 | 0.00 | 96 | 1013.4 |
| 20260502044212 | 3 | 133 | 0.0 | 0.0 | 0.00 | 0.00 | 0.00 | 96 | 1013.4 |
| 20260502043710 | 3 | 131 | 0.0 | 0.0 | 0.00 | 0.00 | 0.00 | 95 | 1013.5 |
| 20260502043208 | 3 | 130 | 0.0 | 0.0 | 0.00 | 0.00 | 0.00 | 93 | 1013.5 |
| 20260502042707 | 3 | 130 | 0.0 | 0.0 | 0.00 | 0.00 | 0.00 | 92 | 1013.5 |
| 20260502042204 | 3 | 130 | 0.0 | 0.0 | 0.00 | 0.00 | 0.00 | 93 | 1013.6 |
| 20260502041702 | 3 | 130 | 0.0 | 0.0 | 0.00 | 0.00 | 0.00 | 93 | 1013.6 |
| 20260502041159 | 3 | 130 | 0.0 | 0.0 | 0.00 | 0.00 | 0.00 | 91 | 1013.5 |
| 20260502040655 | 3 | 130 | 0.0 | 0.0 | 0.00 | 0.00 | 0.00 | 91 | 1013.6 |
| 20260502040153 | 4 | 130 | 0.0 | 0.0 | 0.00 | 0.00 | 0.00 | 93 | 1013.5 |
| 20260502035649 | 4 | 130 | 0.0 | 0.0 | 0.00 | 0.00 | 0.00 | 93 | 1013.4 |
| 20260502035146 | 4 | 131 | 0.0 | 0.0 | 0.00 | 0.00 | 0.00 | 93 | 1013.6 |
| 20260502034643 | 5 | 134 | 0.0 | 0.0 | 0.00 | 0.00 | 0.00 | 93 | 1013.4 |
| 20260502034142 | 5 | 132 | 0.0 | 0.0 | 0.00 | 0.00 | 0.00 | 92 | 1013.4 |
| 20260502033639 | 5 | 133 | 0.0 | 0.0 | 0.00 | 0.00 | 0.00 | 92 | 1013.5 |
| 20260502033137 | 5 | 133 | 0.0 | 0.0 | 0.00 | 0.00 | 0.00 | 92 | 1013.2 |
| 20260502032632 | 5 | 125 | 0.0 | 0.0 | 0.00 | 0.00 | 0.00 | 91 | 1013.3 |
| 20260502032129 | 5 | 131 | 0.0 | 0.0 | 0.00 | 0.00 | 0.00 | 91 | 1013.4 |
| 20260502031627 | 5 | 129 | 0.0 | 0.0 | 0.00 | 0.00 | 0.00 | 89 | 1013.1 |
| 20260502031125 | 6 | 129 | 0.0 | 0.0 | 0.00 | 0.00 | 0.00 | 88 | 1013.2 |
| 20260502030624 | 6 | 129 | 0.0 | 0.0 | 0.00 | 0.00 | 0.00 | 87 | 1013.4 |
| 20260502030121 | 6 | 129 | 0.0 | 0.0 | 0.00 | 0.00 | 0.00 | 86 | 1013.4 |
| 20260502025618 | 6 | 133 | 0.0 | 0.0 | 0.00 | 0.00 | 0.00 | 85 | 1013.4 |
| 20260502025116 | 6 | 133 | 0.0 | 0.0 | 0.00 | 0.00 | 0.00 | 84 | 1013.5 |
| 20260502024614 | 7 | 133 | 0.0 | 0.0 | 0.00 | 0.00 | 0.00 | 84 | 1013.4 |
| 20260502024111 | 7 | 133 | 0.0 | 0.0 | 0.00 | 0.00 | 0.00 | 82 | 1013.3 |
| 20260502023609 | 7 | 133 | 0.0 | 0.0 | 0.00 | 0.00 | 0.00 | 82 | 1013.5 |
| 20260502023106 | 7 | 133 | 0.0 | 0.0 | 0.00 | 0.00 | 0.00 | 82 | 1013.4 |
| 20260502022603 | 7 | 133 | 0.0 | 0.0 | 0.00 | 0.00 | 0.00 | 81 | 1013.5 |
| 20260502022100 | 7 | 134 | 0.0 | 0.0 | 0.00 | 0.00 | 0.00 | 83 | 1013.6 |
| 20260502021557 | 7 | 133 | 0.0 | 0.0 | 0.00 | 0.00 | 0.00 | 82 | 1013.4 |
| 20260502021054 | 7 | 132 | 0.0 | 0.0 | 0.00 | 0.00 | 0.00 | 81 | 1013.2 |
| 20260502020552 | 7 | 133 | 0.0 | 0.0 | 0.00 | 0.00 | 0.00 | 80 | 1013.0 |
| 20260502020048 | 7 | 133 | 0.0 | 0.0 | 0.00 | 0.00 | 0.00 | 78 | 1012.9 |
| 20260502015546 | 7 | 133 | 0.0 | 0.0 | 0.00 | 0.00 | 0.00 | 77 | 1012.9 |
| 20260502015042 | 7 | 133 | 0.0 | 0.0 | 0.00 | 0.00 | 0.00 | 77 | 1012.7 |
| 20260502014540 | 7 | 133 | 0.0 | 0.0 | 0.00 | 0.00 | 0.00 | 76 | 1012.7 |
| 20260502014037 | 7 | 133 | 0.0 | 0.0 | 0.00 | 0.00 | 0.00 | 77 | 1012.8 |
| 20260502013532 | 8 | 133 | 0.0 | 0.0 | 0.00 | 0.00 | 0.00 | 78 | 1012.6 |
| 20260502013029 | 8 | 133 | 0.0 | 0.0 | 0.00 | 0.00 | 0.00 | 76 | 1012.4 |
| 20260502012526 | 8 | 102 | 0.0 | 0.0 | 0.00 | 0.00 | 0.00 | 75 | 1012.2 |
| 20260502012024 | 8 | 125 | 1.6 | 1.6 | 0.00 | 0.00 | 0.00 | 75 | 1012.4 |
| 20260502011520 | 8 | 171 | 3.2 | 3.2 | 0.00 | 0.00 | 0.00 | 76 | 1012.4 |
| 20260502011016 | 9 | 141 | 1.6 | 1.6 | 0.00 | 0.00 | 0.00 | 73 | 1012.2 |
| 20260502010514 | 9 | 195 | 4.8 | 4.8 | 0.00 | 0.00 | 0.00 | 72 | 1012.4 |
| 20260502010010 | 9 | 148 | 1.6 | 1.6 | 0.00 | 0.00 | 0.00 | 73 | 1012.2 |
| 20260502005508 | 10 | 154 | 3.2 | 4.8 | 0.00 | 0.00 | 0.00 | 72 | 1012.0 |
| 20260502005006 | 10 | 325 | 6.4 | 9.7 | 0.00 | 0.00 | 0.00 | 70 | 1011.7 |
| 20260502004501 | 10 | 54 | 4.8 | 4.8 | 0.00 | 0.00 | 0.00 | 69 | 1011.7 |
| 20260502003958 | 10 | 220 | 6.4 | 8.0 | 0.00 | 0.00 | 0.00 | 69 | 1011.4 |
| 20260502003455 | 11 | 136 | 6.4 | 8.0 | 0.00 | 0.00 | 0.00 | 70 | 1011.2 |
| 20260502002951 | 11 | 232 | 6.4 | 9.7 | 0.00 | 0.00 | 0.00 | 72 | 1010.9 |
| 20260502002449 | 11 | 257 | 6.4 | 8.0 | 0.00 | 0.00 | 0.00 | 70 | 1010.9 |
| 20260502001946 | 11 | 341 | 8.0 | 8.0 | 0.00 | 0.00 | 0.00 | 70 | 1010.9 |
| 20260502001444 | 11 | 220 | 1.6 | 3.2 | 0.00 | 0.00 | 0.00 | 71 | 1011.0 |
| 20260502000941 | 11 | 183 | 1.6 | 1.6 | 0.00 | 0.00 | 0.00 | 72 | 1010.6 |
| 20260502000440 | 11 | 9 | 1.6 | 3.2 | 0.00 | 0.00 | 0.00 | 70 | 1010.8 |
| 20260501235935 | 12 | 77 | 4.8 | 4.8 | 0.00 | 0.00 | 0.00 | 69 | 1010.7 |
| 20260501235431 | 12 | 275 | 6.4 | 8.0 | 0.00 | 0.00 | 0.00 | 69 | 1010.6 |
| 20260501234927 | 12 | 17 | 6.4 | 9.7 | 0.00 | 0.00 | 0.00 | 67 | 1010.4 |
| 20260501234424 | 12 | 195 | 4.8 | 4.8 | 0.00 | 0.00 | 0.00 | 67 | 1010.3 |
| 20260501233922 | 12 | 123 | 3.2 | 4.8 | 0.00 | 0.00 | 0.00 | 64 | 1009.9 |
| 20260501233419 | 12 | 95 | 1.6 | 3.2 | 0.00 | 0.00 | 0.00 | 64 | 1009.8 |
| 20260501232914 | 12 | 341 | 6.4 | 8.0 | 0.00 | 0.00 | 0.00 | 62 | 1009.8 |
| 20260501232412 | 13 | 62 | 4.8 | 4.8 | 0.00 | 0.00 | 0.00 | 61 | 1009.7 |
| 20260501231909 | 13 | 83 | 3.2 | 3.2 | 0.00 | 0.00 | 0.00 | 60 | 1009.5 |
| 20260501231408 | 13 | 101 | 3.2 | 3.2 | 0.00 | 0.00 | 0.00 | 62 | 1009.7 |
| 20260501230906 | 13 | 201 | 3.2 | 3.2 | 0.00 | 0.00 | 0.00 | 61 | 1009.8 |
| 20260501230404 | 13 | 332 | 9.7 | 14.5 | 0.00 | 0.00 | 0.00 | 61 | 1009.7 |
| 20260501225901 | 13 | 88 | 4.8 | 4.8 | 0.00 | 0.00 | 0.00 | 63 | 1009.5 |
| 20260501225359 | 13 | 80 | 1.6 | 3.2 | 0.00 | 0.00 | 0.00 | 64 | 1009.4 |
| 20260501224854 | 13 | 4 | 6.4 | 8.0 | 0.00 | 0.00 | 0.00 | 63 | 1009.5 |
| 20260501224352 | 13 | 351 | 8.0 | 11.3 | 0.00 | 0.00 | 0.00 | 65 | 1009.8 |
| 20260501223849 | 13 | 121 | 3.2 | 3.2 | 0.00 | 0.00 | 0.00 | 67 | 1009.7 |
| 20260501223345 | 13 | 98 | 3.2 | 4.8 | 0.00 | 0.00 | 0.00 | 67 | 1009.7 |
| 20260501222840 | 13 | 21 | 4.8 | 4.8 | 0.00 | 0.00 | 0.00 | 65 | 1009.4 |
| 20260501222338 | 13 | 107 | 1.6 | 3.2 | 0.00 | 0.00 | 0.00 | 65 | 1009.3 |
| 20260501221835 | 13 | 157 | 4.8 | 4.8 | 0.00 | 0.00 | 0.00 | 65 | 1009.5 |
| 20260501221332 | 13 | 262 | 6.4 | 8.0 | 0.00 | 0.00 | 0.00 | 64 | 1009.5 |
| 20260501220830 | 13 | 184 | 0.0 | 0.0 | 0.00 | 0.00 | 0.00 | 65 | 1009.3 |
| 20260501220327 | 13 | 109 | 0.0 | 0.0 | 0.00 | 0.00 | 0.00 | 64 | 1009.3 |
| 20260501215823 | 13 | 111 | 1.6 | 1.6 | 0.00 | 0.00 | 0.00 | 64 | 1009.3 |
| 20260501215319 | 13 | 353 | 6.4 | 8.0 | 0.00 | 0.00 | 0.00 | 63 | 1009.1 |
| 20260501214815 | 12 | 109 | 1.6 | 1.6 | 0.00 | 0.00 | 0.00 | 63 | 1009.3 |
| 20260501214310 | 13 | 119 | 4.8 | 8.0 | 0.00 | 0.00 | 0.00 | 64 | 1009.2 |
| 20260501213807 | 13 | 85 | 6.4 | 8.0 | 0.00 | 0.00 | 0.00 | 63 | 1009.4 |
| 20260501213303 | 13 | 43 | 6.4 | 11.3 | 0.00 | 0.00 | 0.00 | 64 | 1009.3 |
| 20260501212759 | 13 | 90 | 4.8 | 4.8 | 0.00 | 0.00 | 0.00 | 63 | 1009.1 |
| 20260501212255 | 13 | 145 | 1.6 | 3.2 | 0.00 | 0.00 | 0.00 | 64 | 1009.1 |
| 20260501211753 | 13 | 115 | 1.6 | 3.2 | 0.00 | 0.00 | 0.00 | 65 | 1009.2 |
| 20260501211250 | 13 | 22 | 3.2 | 3.2 | 0.00 | 0.00 | 0.00 | 64 | 1009.0 |
| 20260501210747 | 13 | 136 | 1.6 | 3.2 | 0.00 | 0.00 | 0.00 | 64 | 1009.2 |
| 20260501210244 | 13 | 23 | 4.8 | 4.8 | 0.00 | 0.00 | 0.00 | 64 | 1008.9 |
| 20260501205740 | 13 | 82 | 8.0 | 9.7 | 0.00 | 0.00 | 0.00 | 63 | 1009.0 |
| 20260501205237 | 13 | 34 | 11.3 | 14.5 | 0.00 | 0.00 | 0.00 | 62 | 1009.1 |
| 20260501204734 | 13 | 47 | 8.0 | 9.7 | 0.00 | 0.00 | 0.00 | 62 | 1008.9 |
| 20260501204231 | 14 | 12 | 9.7 | 16.1 | 0.00 | 0.00 | 0.00 | 60 | 1008.8 |
| 20260501203727 | 15 | 133 | 3.2 | 8.0 | 0.00 | 0.00 | 0.00 | 60 | 1008.8 |
| 20260501203225 | 14 | 99 | 3.2 | 3.2 | 0.00 | 0.00 | 0.00 | 61 | 1008.9 |
| 20260501202721 | 15 | 94 | 1.6 | 3.2 | 0.00 | 0.00 | 0.00 | 61 | 1008.8 |
| 20260501202218 | 15 | 95 | 4.8 | 8.0 | 0.00 | 0.00 | 0.00 | 61 | 1009.1 |
| 20260501201715 | 14 | 94 | 6.4 | 9.7 | 0.00 | 0.00 | 0.00 | 63 | 1009.2 |
| 20260501201212 | 15 | 50 | 8.0 | 9.7 | 0.00 | 0.00 | 0.00 | 61 | 1009.1 |
| 20260501200708 | 15 | 253 | 8.0 | 11.3 | 0.00 | 0.00 | 0.00 | 60 | 1008.9 |
| 20260501200206 | 15 | 326 | 17.7 | 32.2 | 0.00 | 0.00 | 0.00 | 59 | 1008.6 |
| 20260501195703 | 15 | 120 | 4.8 | 8.0 | 0.00 | 0.00 | 0.00 | 58 | 1008.5 |
| 20260501195159 | 16 | 97 | 1.6 | 3.2 | 0.00 | 0.00 | 0.00 | 57 | 1008.4 |